Weather in Iași

Romania     47°09′19″N   27°35′44″E
temp.,
°C
wind,
m/s
gust,
m/s
humid.,
%
clouds,
%
prec.,
mm/h
press.,
hPa
HPBL,
m
24 may, tue
tue2400:00+10w22905 0.0 101314
03:00+8wnw11924 0.0 101310
06:00+8nw11920 0.0 101410
09:00+14n11713 0.0 1014419
12:00+19se11525 0.0 10141478
15:00+21ese124247 0.0 10132059
18:00+20se4452100 0.0 1013663
21:00+15ese336770 0.0 101429
25 may, wed
wed2500:00+13ese256998 0.0 101575
03:00+12se227659 0.0 101626
06:00+11ese238596 0.0 101655
09:00+18sse576436 0.0 1017711
12:00+22sse794810 0.0 10161473
15:00+24s884595 0.0 10151590
18:00+23s695441 0.1 10141057
21:00+17se3687100 3.3 1014120
26 may, thu
thu2600:00+15sse51281100 2.1 1015372
03:00+13wsw2290100 2.9 101544
06:00+15nw3790100 0.4 1016461
09:00+16nw698694 0.6 1018711
12:00+15nw498299 0.1 1019507
15:00+22wnw365664 0.1 10181496
18:00+22nw2455100 0.0 1018646
21:00+18w226367 0.0 101928
27 may, fri
fri2700:00+16sw116834 0.0 102011
03:00+16sw226891 0.0 101938
06:00+15w2681100 0.0 1019138
09:00+20nnw34575 0.0 1019577
12:00+23wnw12470 0.0 10181505
15:00+25s23420 0.0 10151725
18:00+26s25430 0.0 10121592
21:00+20wsw22655 0.0 101128
28 may, sat
sat2800:00+17wsw36680 0.0 101282
03:00+16nnw511795 0.0 1013522
06:00+12nw238640 0.0 101477
09:00+17nnw3460100 0.0 1014805
12:00+18n2252100 0.0 10141088
15:00+17n2263100 0.0 1013299
18:00+14n3581100 0.1 1014225
21:00+13nne1285100 0.2 101564